OBJECT AD, 57193

Orbit data source: Space-Track

You're viewing an Uncataloged Satellite

Recently launched and/or uncataloged satellites may have evolving metadata. Metadata may include but not limited to: Owner, Maufacturer, Bus, Motor, and Mission.

OBJECT AD, 57193 is a satellite in SSO that was launched on Tue, 27 Jun 2023 UTC via a SOYUZ-2-1B launch vehicle from the Vostochny Cosmodrome (VOSTO). Unknown objects in Earth's orbit typically refer to objects detected orbiting the Earth but have not yet been identified or cataloged. These objects could be anything from previously untracked satellites, spent rocket stages, debris from satellite collisions, or even natural meteoroids temporarily captured by Earth's gravity.

Loading next visibility...
Identifier
57193, 2023-091AD
Orbit
SSO
Country
Flag of TBDTBD
Related business
Manufacturer
Sputniks
Mission
Operational Commercial Technology
Bus & Motor
CUBESAT 3U?, Unknown motor
Mass
3 kg wet, 3 kg dry
Launch date (UTC)
2023-06-27 (2 years ago)
Launch vehicle
SOYUZ-2-1B
Launch site
Vostochny Cosmodrome (VOSTO)
Object type
Unknown
Shape & HBR
Box, 0.1 m
Radar Cross Section
0.035 m², Small (<0.1 m²)

Expand to show TLE details & history
Last TLE update: 6 hours ago

TLE from 6 hours ago
0 OBJECT AD
1 57193U 23091AD  25304.70708282  .00017619  00000-0  71229-3 0  9996
2 57193  97.5410   2.8560 0012483 178.9662 181.1603 15.24726441129548
Epoch: 2025-10-31T16:58Z
TLE epoch observation values (Epoch: 2025-10-31T16:58:11.955Z)
Latitude
-0.00007°
Longitude
68.05854°
Altitude
503.276 km
Speed
7.608 km/s
True Right ascension
00h 11m 25s
True Declination
0° 00' 00"
Sunlit
Object was in full shadow at epoch
Visualization orbit readout
Latitude
Unknown
Longitude
Unknown
Altitude
Unknown
Speed
Unknown
Apparent Right ascension
Unknown
Apparent Declination
Unknown
Sunlit
N/A
Visualization observer readout
Local Sidereal Time
18:35:11
Azimuth
Unknown
Elevation
Unknown
Doppler factor
Unknown
Orbital elements
Apogee altitude
497.144 km
Perigee altitude
480.001 km
Semi-major axis
6,866.709 km
Eccentricity
0.00125
Inclination
97.541°
RAAN
2.856°
Arg. of periapsis
178.9662°
True anomaly
181.15741°
Mean anomaly
181.1603°
Eccentric anomaly
181.15885°
Mean motion
3.81435 °/min
Orbital period
94.38 mins
BSTAR
0.00071229
Loading maneuver chart data...
Computing Atmospheric mass density...
Loading historical data...
Loading historical data...
Loading historical data...
Loading historical data...
Loading historical data...
Loading historical data...
Loading historical data...

Documentation

Showing up to 5 results
|